CW2640 Weather Reports


time (UTC)temp
F
wind
direction
speed
knots
gust
knots
rain 1hr
in
rain 24hr
in
rain mn
in
humidity
%
barometer
mb
20260906081747 76 80 0.0 0.0 0.00 0.00 0.00 98 1012.8
20260906074742 78 80 0.0 0.0 0.00 0.00 0.00 92 1013.1
20260906071740 78 80 0.0 0.0 0.00 0.00 0.00 91 1013.4
20260906064740 79 80 0.0 0.0 0.00 0.00 0.00 97 1013.4
20260906061740 79 82 0.0 0.0 0.00 0.00 0.00 95 1013.3
20260906054738 80 80 0.0 0.0 0.00 0.00 0.00 92 1013.5
20260906051737 80 81 0.0 0.0 0.00 0.00 0.00 95 1014.0
20260906044734 80 88 0.0 0.0 0.00 0.00 0.00 95 1013.3
20260906041733 80 92 0.0 0.0 0.00 0.00 0.00 94 1013.1
20260906034733 81 93 0.0 0.0 0.00 0.00 0.00 92 1013.3
20260906031733 82 95 0.0 0.0 0.00 0.00 0.00 91 1013.1
20260906024728 83 95 0.0 0.0 0.00 0.00 0.00 89 1013.0
20260906021729 84 96 0.0 0.0 0.00 0.00 0.00 87 1012.8
20260906014728 86 99 0.0 0.0 0.00 0.00 0.00 85 1012.4
20260906011722 86 101 0.0 0.0 0.00 0.00 0.00 84 1011.9
20260906004719 87 102 0.0 0.0 0.00 0.00 0.00 80 1011.8
20260906001713 87 99 0.0 0.0 0.00 0.00 0.00 79 1011.3
20260905234711 90 94 0.0 0.0 0.00 0.00 0.00 71 1011.4
20260905231710 93 90 0.0 0.0 0.00 0.00 0.00 64 1011.3
20260905224710 96 83 0.0 0.0 0.00 0.00 0.00 57 1011.0
20260905221706 99 80 0.0 0.0 0.00 0.00 0.00 49 1011.1
20260905214703 98 80 0.0 0.0 0.00 0.00 0.00 49 1011.2
20260905211702 100 80 0.0 0.0 0.00 0.00 0.00 51 1011.7
20260905204658 100 80 0.0 0.0 0.00 0.00 0.00 49 1011.9
20260905201659 95 80 0.0 0.0 0.00 0.00 0.00 55 1012.0
20260905194655 98 80 0.0 0.0 0.00 0.00 0.00 51 1012.3
20260905191654 97 80 0.0 0.0 0.00 0.00 0.00 55 1012.7
20260905184648 99 80 0.0 0.0 0.00 0.00 0.00 51 1013.2
20260905181643 96 80 0.0 0.0 0.00 0.00 0.00 55 1013.8
20260905174641 98 80 0.0 0.0 0.00 0.00 0.00 54 1014.1
20260905171635 97 80 0.0 0.0 0.00 0.00 0.00 56 1014.6
20260905164630 96 80 0.0 0.0 0.00 0.00 0.00 58 1014.8
20260905161628 95 80 0.0 0.0 0.00 0.00 0.00 64 1015.1
20260905154625 95 80 0.0 0.0 0.00 0.00 0.00 67 1015.2
20260905151620 91 80 0.0 0.0 0.00 0.00 0.00 70 1015.2
20260905144620 89 80 0.0 0.0 0.00 0.00 0.00 78 1015.4
20260905141618 85 80 0.0 0.0 0.00 0.00 0.00 86 1015.5
20260905134618 80 80 0.0 0.0 0.00 0.00 0.00 94 1015.6
20260905131614 77 80 0.0 0.0 0.00 0.00 0.00 99 1015.6
20260905124612 74 80 0.0 0.0 0.00 0.00 0.00 99 1015.8
20260905121607 73 80 0.0 0.0 0.00 0.00 0.00 99 1015.6
20260905114601 72 80 0.0 0.0 0.00 0.00 0.00 99 1015.3
20260905111600 73 80 0.0 0.0 0.00 0.00 0.00 99 1014.8
20260905104555 73 80 0.0 0.0 0.00 0.00 0.00 99 1014.9
20260905101554 73 80 0.0 0.0 0.00 0.00 0.00 99 1014.7
20260905094551 73 80 0.0 0.0 0.00 0.00 0.00 99 1014.6
20260905091547 74 80 0.0 0.0 0.00 0.00 0.00 99 1014.5
20260905084543 74 80 0.0 0.0 0.00 0.00 0.00 99 1014.5